Weather Roundup
Issued by NWS Chicago, IL

Home | Current Version | Previous Version | Graphics & Text | Print | Product List | Glossary On
Versions: 1 2 3 4 5 6 7 8 9 10 11 12 13 14 15 16 17 18 19 20 21 22 23 24 25 26 27 28 29 30 31 32 33 34 35 36 37 38 39 40 41 42 43 44 45 46 47 48 49 50
000
NZUS59 KLOT 240103
HRRLOT

CHICAGO AREA WEATHER ROUNDUP
NATIONAL WEATHER SERVICE CHICAGO/ROMEOVILLE IL
800 PM CDT TUE MAY 23 2017

NOTE: "FAIR" INDICATES FEW OR NO CLOUDS BELOW 12,000 FEET WITH NO
SIGNIFICANT WEATHER AND/OR OBSTRUCTIONS TO VISIBILITY.

* THESE STATIONS ARE NOT UNDER NWS QUALITY CONTROL. THEY ALSO MAY NOT
  REPORT WEATHER SUCH AS PRECIPITATION OR FOG.

ILZ005-006-012>014-019>023-240200-
NORTHEAST ILLINOIS

CITY           SKY/WX    TMP DP  RH WIND       PRES   REMARKS
OHARE          LGT RAIN  58  55  90 SE5       29.70S
MIDWAY         CLOUDY    58  55  90 CALM      29.71R
AURORA         LGT RAIN  57  55  93 NE3       29.71S
LANSING*       LGT RAIN  56  56  99 N3        29.70F
JOLIET*        DRIZZLE   58  56  94 CALM      29.71S
WAUKEGAN       LGT RAIN  54  53  97 CALM      29.71S FOG
DUPAGE AIRPORT LGT RAIN  55  55 100 CALM      29.70F FOG
WHEELING       CLOUDY    56  56 100 E3        29.72S
KANKAKEE*      CLOUDY    58  55  92 CALM      29.70R
MORRIS*        CLOUDY    57  54  89 CALM      29.70S
LEWIS AIRPORT* CLOUDY    56  56 100 CALM      29.71S
NORTHERLY ISL    N/A     55  52  89 NE2         N/A
$$

WIZ051-052-058>065-066-070>072-240200-
SOUTHEAST WISCONSIN

CITY           SKY/WX    TMP DP  RH WIND       PRES   REMARKS
MILWAUKEE      LGT RAIN  57  55  93 N7        29.73R FOG
KENOSHA*       RAIN      55  53  93 CALM      29.72S FOG
RACINE*        LGT RAIN  55  52  89 SW3       29.74R
WAUKESHA       RAIN      54  54 100 NE5       29.73S
$$

INZ001>003-010>013-019-020-240200-
NORTHWEST INDIANA

CITY           SKY/WX    TMP DP  RH WIND       PRES   REMARKS
GARY*          LGT RAIN  57  55  94 CALM      29.71F
MICHIGAN CITY* NOT AVBL
RENSSELAER*    NOT AVBL
VALPARAISO     CLOUDY    58  54  86 NW10      29.71R
$$

LMZ740>746-240200-
SOUTHERN LAKE MICHIGAN

STATION/POSITION TIME  SKY/WX   TEMP WIND        PRES    VSBY
                                AIR  DIR/SP/G
                 (UTC)          (F)  (DEG/KT/KT) (MB)    (MI)
HARRISON CRIB    0040            56   60/ 10/ 11   N/A
BURNHAM HARBOR   0100            55   CALM  /  5   N/A
CALUMET HARBOR   0030            55   30/  5/  8 1005.6F
BURNS HARBOR     0040            54  300/ 10/ 15 1006.8R
MICHIGAN CITY    0040            55   40/  5/  5   N/A
$$

ABBREVIATIONS USED IN REMARKS
   TC - TEMPERATURE IN CELSIUS
  WCI - WIND CHILL INDEX
   HX - HEAT INDEX
  VSB - VISIBILITY
$$




USA.gov is the U.S. government's official web portal to all federal, state and local government web resources and services.